Time,TemperatureF,DewpointF,PressureIn,WindDirection,WindDirectionDegrees,WindSpeedMPH,WindSpeedGustMPH,Humidity,HourlyPrecipIn,Conditions,Clouds,dailyrainin,SoftwareType,DateUTC
2013-01-22 00:15:00,43.1,37.3,30.12,ENE,58,0.0,0.0,80,0.00,,,0.00,Wunderground v.1.15,2013-01-22 08:15:00,
2013-01-22 00:20:00,43.0,36.9,30.13,ENE,58,0.0,0.0,79,0.00,,,0.00,Wunderground v.1.15,2013-01-22 08:20:00,
2013-01-22 00:25:00,42.9,36.8,30.13,ENE,59,0.0,0.0,79,0.00,,,0.00,Wunderground v.1.15,2013-01-22 08:25:00,
2013-01-22 00:35:00,44.3,38.2,30.13,ESE,108,0.0,0.0,79,0.00,,,0.00,Wunderground v.1.15,2013-01-22 08:35:00,
2013-01-22 01:00:00,46.0,38.2,30.12,East,101,0.0,2.0,74,0.00,,,0.00,Wunderground v.1.15,2013-01-22 09:00:00,
2013-01-22 01:15:00,46.3,37.8,30.12,ESE,113,0.0,0.0,72,0.00,,,0.00,Wunderground v.1.15,2013-01-22 09:15:00,
2013-01-22 01:24:00,46.0,37.8,30.12,SE,127,0.0,0.0,73,0.00,,,0.00,Wunderground v.1.15,2013-01-22 09:24:00,
2013-01-22 01:45:00,46.9,38.0,30.12,ENE,71,1.0,1.0,71,0.00,,,0.00,Wunderground v.1.15,2013-01-22 09:45:00,
2013-01-22 02:04:00,46.0,37.5,30.12,ESE,111,0.0,2.0,72,0.00,,,0.00,Wunderground v.1.15,2013-01-22 10:04:00,
2013-01-22 02:24:00,45.3,37.5,30.11,East,97,0.0,0.0,74,0.00,,,0.00,Wunderground v.1.15,2013-01-22 10:24:00,
2013-01-22 02:34:00,45.6,37.4,30.11,East,101,0.0,0.0,73,0.00,,,0.00,Wunderground v.1.15,2013-01-22 10:34:00,
2013-01-22 02:44:00,45.4,37.6,30.11,East,101,0.0,0.0,74,0.00,,,0.00,Wunderground v.1.15,2013-01-22 10:44:00,
2013-01-22 02:50:00,45.4,37.6,30.11,East,96,0.0,0.0,74,0.00,,,0.00,Wunderground v.1.15,2013-01-22 10:50:00,
2013-01-22 03:05:00,45.6,37.4,30.11,East,101,0.0,0.0,73,0.00,,,0.00,Wunderground v.1.15,2013-01-22 11:05:00,
2013-01-22 03:10:00,45.5,37.3,30.10,East,101,0.0,0.0,73,0.00,,,0.00,Wunderground v.1.15,2013-01-22 11:10:00,
2013-01-22 03:20:00,44.9,37.1,30.10,East,101,0.0,0.0,74,0.00,,,0.00,Wunderground v.1.15,2013-01-22 11:20:00,
2013-01-22 03:25:00,44.6,37.2,30.10,East,101,0.0,0.0,75,0.00,,,0.00,Wunderground v.1.15,2013-01-22 11:25:00,
2013-01-22 03:55:00,42.5,36.1,30.09,East,101,0.0,0.0,78,0.00,,,0.00,Wunderground v.1.15,2013-01-22 11:55:00,
2013-01-22 04:04:00,42.1,36.4,30.09,East,101,0.0,0.0,80,0.00,,,0.00,Wunderground v.1.15,2013-01-22 12:04:00,
2013-01-22 04:20:00,41.5,36.1,30.09,East,101,0.0,0.0,81,0.00,,,0.00,Wunderground v.1.15,2013-01-22 12:20:00,
2013-01-22 04:30:00,41.3,36.2,30.09,East,101,0.0,0.0,82,0.00,,,0.00,Wunderground v.1.15,2013-01-22 12:30:00,
2013-01-22 04:44:00,41.3,35.9,30.09,East,101,0.0,0.0,81,0.00,,,0.00,Wunderground v.1.15,2013-01-22 12:44:00,
2013-01-22 05:05:00,41.4,36.3,30.09,East,101,0.0,0.0,82,0.00,,,0.00,Wunderground v.1.15,2013-01-22 13:05:00,
2013-01-22 05:25:00,41.3,35.0,30.09,East,101,0.0,0.0,78,0.00,,,0.00,Wunderground v.1.15,2013-01-22 13:25:00,
2013-01-22 05:39:00,41.4,35.7,30.10,East,101,0.0,0.0,80,0.00,,,0.00,Wunderground v.1.15,2013-01-22 13:39:00,
2013-01-22 05:45:00,41.1,34.8,30.10,East,101,0.0,0.0,78,0.00,,,0.00,Wunderground v.1.15,2013-01-22 13:45:00,
2013-01-22 05:50:00,40.9,34.6,30.10,East,101,0.0,0.0,78,0.00,,,0.00,Wunderground v.1.15,2013-01-22 13:50:00,
2013-01-22 06:00:00,41.3,35.6,30.10,East,101,0.0,0.0,80,0.00,,,0.00,Wunderground v.1.15,2013-01-22 14:00:00,
2013-01-22 06:15:00,41.6,35.2,30.10,ESE,105,0.0,0.0,78,0.00,,,0.00,Wunderground v.1.15,2013-01-22 14:15:00,
2013-01-22 06:25:00,41.8,35.1,30.10,ESE,105,0.0,0.0,77,0.00,,,0.00,Wunderground v.1.15,2013-01-22 14:25:00,
2013-01-22 06:35:00,42.3,35.6,30.10,ESE,105,0.0,0.0,77,0.00,,,0.00,Wunderground v.1.15,2013-01-22 14:35:00,
2013-01-22 06:45:00,43.2,35.5,30.11,East,93,0.0,0.0,74,0.00,,,0.00,Wunderground v.1.15,2013-01-22 14:45:00,
2013-01-22 07:05:00,40.7,34.7,30.11,East,93,0.0,0.0,79,0.00,,,0.00,Wunderground v.1.15,2013-01-22 15:05:00,
2013-01-22 07:14:00,40.4,34.4,30.11,East,93,0.0,0.0,79,0.00,,,0.00,Wunderground v.1.15,2013-01-22 15:14:00,
2013-01-22 07:20:00,40.2,34.5,30.11,East,93,0.0,0.0,80,0.00,,,0.00,Wunderground v.1.15,2013-01-22 15:20:00,
2013-01-22 07:35:00,40.8,34.5,30.11,East,93,0.0,0.0,78,0.00,,,0.00,Wunderground v.1.15,2013-01-22 15:35:00,
2013-01-22 07:45:00,40.4,34.7,30.11,East,93,0.0,0.0,80,0.00,,,0.00,Wunderground v.1.15,2013-01-22 15:45:00,
2013-01-22 07:50:00,40.5,34.8,30.11,East,92,0.0,0.0,80,0.00,,,0.00,Wunderground v.1.15,2013-01-22 15:50:00,
2013-01-22 07:55:00,40.2,34.5,30.11,East,93,0.0,0.0,80,0.00,,,0.00,Wunderground v.1.15,2013-01-22 15:55:00,
2013-01-22 08:04:00,40.4,35.3,30.11,East,93,0.0,0.0,82,0.00,,,0.00,Wunderground v.1.15,2013-01-22 16:04:00,
2013-01-22 08:25:00,43.0,36.9,30.11,SSE,161,0.0,0.0,79,0.00,,,0.00,Wunderground v.1.15,2013-01-22 16:25:00,
2013-01-22 08:40:00,45.5,37.7,30.11,NE,41,0.0,0.0,74,0.00,,,0.00,Wunderground v.1.15,2013-01-22 16:40:00,
2013-01-22 08:50:00,46.5,38.3,30.11,NE,41,0.0,0.0,73,0.00,,,0.00,Wunderground v.1.15,2013-01-22 16:50:00,
2013-01-22 09:10:00,46.5,38.7,30.12,NE,42,0.0,0.0,74,0.00,,,0.00,Wunderground v.1.15,2013-01-22 17:10:00,
2013-01-22 09:20:00,47.4,38.8,30.11,NE,41,0.0,0.0,72,0.00,,,0.00,Wunderground v.1.15,2013-01-22 17:20:00,
2013-01-22 09:34:00,49.0,38.9,30.11,ENE,61,0.0,0.0,68,0.00,,,0.00,Wunderground v.1.15,2013-01-22 17:34:00,
2013-01-22 09:45:00,49.9,39.0,30.11,ENE,61,0.0,0.0,66,0.00,,,0.00,Wunderground v.1.15,2013-01-22 17:45:00,
2013-01-22 09:50:00,50.7,39.4,30.11,ENE,61,0.0,0.0,65,0.00,,,0.00,Wunderground v.1.15,2013-01-22 17:50:00,
2013-01-22 09:55:00,51.3,38.7,30.11,North,11,1.0,1.0,62,0.00,,,0.00,Wunderground v.1.15,2013-01-22 17:55:00,
2013-01-22 10:04:00,52.3,40.1,30.11,NE,44,0.0,0.0,63,0.00,,,0.00,Wunderground v.1.15,2013-01-22 18:04:00,
2013-01-22 10:10:00,53.0,39.9,30.12,NE,49,1.0,1.0,61,0.00,,,0.00,Wunderground v.1.15,2013-01-22 18:10:00,
2013-01-22 10:25:00,54.1,40.9,30.11,ENE,61,1.0,1.0,61,0.00,,,0.00,Wunderground v.1.15,2013-01-22 18:25:00,
2013-01-22 10:34:00,54.9,40.8,30.11,East,80,1.0,1.0,59,0.00,,,0.00,Wunderground v.1.15,2013-01-22 18:34:00,
2013-01-22 10:40:00,55.3,41.2,30.11,East,83,1.0,2.0,59,0.00,,,0.00,Wunderground v.1.15,2013-01-22 18:40:00,
2013-01-22 10:50:00,56.1,40.6,30.11,NE,54,1.0,1.0,56,0.00,,,0.00,Wunderground v.1.15,2013-01-22 18:50:00,
2013-01-22 10:55:00,56.6,40.1,30.11,NNE,24,2.0,3.0,54,0.00,,,0.00,Wunderground v.1.15,2013-01-22 18:55:00,
2013-01-22 11:05:00,57.4,40.4,30.11,ENE,70,2.0,3.0,53,0.00,,,0.00,Wunderground v.1.15,2013-01-22 19:05:00,
2013-01-22 11:14:00,58.3,41.2,30.10,NE,46,1.0,3.0,53,0.00,,,0.00,Wunderground v.1.15,2013-01-22 19:14:00,
2013-01-22 11:30:00,58.4,40.8,30.10,ENE,77,2.0,2.0,52,0.00,,,0.00,Wunderground v.1.15,2013-01-22 19:30:00,
2013-01-22 11:40:00,58.7,41.6,30.09,NNE,24,1.0,1.0,53,0.00,,,0.00,Wunderground v.1.15,2013-01-22 19:40:00,
2013-01-22 11:45:00,58.9,41.3,30.09,NE,43,2.0,2.0,52,0.00,,,0.00,Wunderground v.1.15,2013-01-22 19:45:00,
2013-01-22 11:55:00,58.9,41.3,30.08,East,83,2.0,2.0,52,0.00,,,0.00,Wunderground v.1.15,2013-01-22 19:55:00,
2013-01-22 12:05:00,58.8,41.2,30.08,NE,35,2.0,2.0,52,0.00,,,0.00,Wunderground v.1.15,2013-01-22 20:05:00,
2013-01-22 12:20:00,59.6,41.9,30.07,NE,55,2.0,2.0,52,0.00,,,0.00,Wunderground v.1.15,2013-01-22 20:20:00,
2013-01-22 12:25:00,60.2,41.5,30.07,NNE,20,1.0,3.0,50,0.00,,,0.00,Wunderground v.1.15,2013-01-22 20:25:00,
2013-01-22 12:30:00,60.4,41.7,30.07,NNE,29,1.0,6.0,50,0.00,,,0.00,Wunderground v.1.15,2013-01-22 20:30:00,
2013-01-22 12:40:00,60.4,42.2,30.06,East,91,2.0,4.0,51,0.00,,,0.00,Wunderground v.1.15,2013-01-22 20:40:00,
2013-01-22 12:50:00,60.4,42.2,30.06,NE,51,2.0,2.0,51,0.00,,,0.00,Wunderground v.1.15,2013-01-22 20:50:00,
2013-01-22 12:55:00,60.8,42.5,30.06,NE,36,2.0,2.0,51,0.00,,,0.00,Wunderground v.1.15,2013-01-22 20:55:00,
2013-01-22 13:00:00,61.4,42.1,30.05,ENE,69,1.0,1.0,49,0.00,,,0.00,Wunderground v.1.15,2013-01-22 21:00:00,
2013-01-22 13:14:00,61.7,42.9,30.05,ESE,121,2.0,2.0,50,0.00,,,0.00,Wunderground v.1.15,2013-01-22 21:14:00,
2013-01-22 13:20:00,61.8,41.9,30.05,ENE,64,2.0,2.0,48,0.00,,,0.00,Wunderground v.1.15,2013-01-22 21:20:00,
2013-01-22 13:30:00,61.7,41.8,30.04,East,88,1.0,1.0,48,0.00,,,0.00,Wunderground v.1.15,2013-01-22 21:30:00,
2013-01-22 13:40:00,61.5,42.2,30.04,East,88,0.0,2.0,49,0.00,,,0.00,Wunderground v.1.15,2013-01-22 21:40:00,
2013-01-22 13:50:00,62.5,42.0,30.04,NE,54,0.0,0.0,47,0.00,,,0.00,Wunderground v.1.15,2013-01-22 21:50:00,
2013-01-22 14:04:00,63.8,42.6,30.03,ENE,59,0.0,0.0,46,0.00,,,0.00,Wunderground v.1.15,2013-01-22 22:04:00,
2013-01-22 14:14:00,63.9,42.1,30.03,North,351,0.0,1.0,45,0.00,,,0.00,Wunderground v.1.15,2013-01-22 22:14:00,
2013-01-22 14:19:00,63.8,42.0,30.04,NNE,17,0.0,0.0,45,0.00,,,0.00,Wunderground v.1.15,2013-01-22 22:19:00,
2013-01-22 14:30:00,64.3,43.1,30.03,NNE,17,0.0,0.0,46,0.00,,,0.00,Wunderground v.1.15,2013-01-22 22:30:00,
2013-01-22 14:44:00,64.3,43.6,30.03,NE,51,0.0,1.0,47,0.00,,,0.00,Wunderground v.1.15,2013-01-22 22:44:00,
2013-01-22 14:50:00,64.1,42.3,30.03,ENE,69,0.0,0.0,45,0.00,,,0.00,Wunderground v.1.15,2013-01-22 22:50:00,
2013-01-22 15:10:00,63.0,42.4,30.03,ENE,69,0.0,0.0,47,0.00,,,0.00,Wunderground v.1.15,2013-01-22 23:10:00,
2013-01-22 15:15:00,63.0,42.4,30.03,ENE,69,0.0,0.0,47,0.00,,,0.00,Wunderground v.1.15,2013-01-22 23:15:00,
2013-01-22 15:25:00,62.9,42.9,30.03,ENE,62,0.0,1.0,48,0.00,,,0.00,Wunderground v.1.15,2013-01-22 23:25:00,
2013-01-22 15:30:00,62.7,43.8,30.03,ENE,61,0.0,0.0,50,0.00,,,0.00,Wunderground v.1.15,2013-01-22 23:30:00,
2013-01-22 15:35:00,62.5,43.1,30.03,ENE,61,0.0,0.0,49,0.00,,,0.00,Wunderground v.1.15,2013-01-22 23:35:00,
2013-01-22 15:44:00,61.9,44.6,30.03,ENE,61,0.0,0.0,53,0.00,,,0.00,Wunderground v.1.15,2013-01-22 23:44:00,
2013-01-22 15:50:00,61.5,44.2,30.02,ENE,67,0.0,2.0,53,0.00,,,0.00,Wunderground v.1.15,2013-01-22 23:50:00,
2013-01-22 16:00:00,60.7,44.4,30.03,ENE,76,0.0,0.0,55,0.00,,,0.00,Wunderground v.1.15,2013-01-23 00:00:00,
2013-01-22 16:10:00,59.7,44.4,30.02,ENE,74,1.0,3.0,57,0.00,,,0.00,Wunderground v.1.15,2013-01-23 00:10:00,
2013-01-22 16:20:00,58.7,44.4,30.02,ESE,121,1.0,4.0,59,0.00,,,0.00,Wunderground v.1.15,2013-01-23 00:20:00,
2013-01-22 16:30:00,57.8,44.0,30.02,East,84,2.0,2.0,60,0.00,,,0.00,Wunderground v.1.15,2013-01-23 00:30:00,
2013-01-22 16:40:00,57.3,43.5,30.03,ESE,107,2.0,2.0,60,0.00,,,0.00,Wunderground v.1.15,2013-01-23 00:40:00,
2013-01-22 17:05:00,56.1,43.3,30.02,East,99,0.0,1.0,62,0.00,,,0.00,Wunderground v.1.15,2013-01-23 01:05:00,
2013-01-22 17:15:00,55.6,43.2,30.02,East,99,0.0,0.0,63,0.00,,,0.00,Wunderground v.1.15,2013-01-23 01:15:00,
2013-01-22 17:25:00,55.0,43.0,30.02,East,99,0.0,0.0,64,0.00,,,0.00,Wunderground v.1.15,2013-01-23 01:25:00,
2013-01-22 17:35:00,54.4,43.3,30.02,East,99,0.0,0.0,66,0.00,,,0.00,Wunderground v.1.15,2013-01-23 01:35:00,
2013-01-22 17:45:00,54.0,43.3,30.02,East,98,0.0,0.0,67,0.00,,,0.00,Wunderground v.1.15,2013-01-23 01:45:00,
2013-01-22 17:55:00,53.7,43.8,30.02,East,88,0.0,0.0,69,0.00,,,0.00,Wunderground v.1.15,2013-01-23 01:55:00,
2013-01-22 18:10:00,53.1,43.6,30.02,ENE,66,0.0,0.0,70,0.00,,,0.00,Wunderground v.1.15,2013-01-23 02:10:00,
2013-01-22 18:20:00,52.6,43.5,30.02,ENE,66,0.0,0.0,71,0.00,,,0.00,Wunderground v.1.15,2013-01-23 02:20:00,
2013-01-22 18:35:00,52.1,43.3,30.02,ENE,66,0.0,0.0,72,0.00,,,0.00,Wunderground v.1.15,2013-01-23 02:35:00,
2013-01-22 18:40:00,51.9,43.5,30.02,ENE,66,0.0,0.0,73,0.00,,,0.00,Wunderground v.1.15,2013-01-23 02:40:00,
2013-01-22 18:45:00,51.7,43.3,30.02,ENE,66,0.0,0.0,73,0.00,,,0.00,Wunderground v.1.15,2013-01-23 02:45:00,
2013-01-22 18:54:00,51.2,43.2,30.02,ENE,66,0.0,0.0,74,0.00,,,0.00,Wunderground v.1.15,2013-01-23 02:54:00,
2013-01-22 19:05:00,50.7,43.1,30.02,ENE,66,0.0,0.0,75,0.00,,,0.00,Wunderground v.1.15,2013-01-23 03:05:00,
2013-01-22 19:14:00,50.6,43.3,30.03,ENE,66,0.0,0.0,76,0.00,,,0.00,Wunderground v.1.15,2013-01-23 03:14:00,
2013-01-22 19:20:00,50.5,43.2,30.03,ENE,66,0.0,0.0,76,0.00,,,0.00,Wunderground v.1.15,2013-01-23 03:20:00,
2013-01-22 19:54:00,50.8,43.5,30.02,SSE,159,0.0,0.0,76,0.00,,,0.00,Wunderground v.1.15,2013-01-23 03:54:00,
2013-01-22 20:00:00,50.5,43.6,30.02,SSE,159,0.0,0.0,77,0.00,,,0.00,Wunderground v.1.15,2013-01-23 04:00:00,
2013-01-22 20:14:00,50.0,43.4,30.03,SSE,159,0.0,0.0,78,0.00,,,0.00,Wunderground v.1.15,2013-01-23 04:14:00,
2013-01-22 20:20:00,50.0,43.4,30.02,SSE,159,0.0,0.0,78,0.00,,,0.00,Wunderground v.1.15,2013-01-23 04:20:00,
2013-01-22 20:45:00,50.2,43.6,30.03,SSE,160,0.0,0.0,78,0.00,,,0.00,Wunderground v.1.15,2013-01-23 04:45:00,
2013-01-22 21:05:00,50.1,43.5,30.03,SSE,160,0.0,0.0,78,0.00,,,0.00,Wunderground v.1.15,2013-01-23 05:05:00,
2013-01-22 21:15:00,50.1,43.5,30.03,SSE,160,0.0,0.0,78,0.00,,,0.00,Wunderground v.1.15,2013-01-23 05:15:00,
2013-01-22 21:30:00,49.5,43.3,30.04,SSE,160,0.0,0.0,79,0.00,,,0.00,Wunderground v.1.15,2013-01-23 05:30:00,
2013-01-22 21:44:00,49.9,43.3,30.04,East,101,0.0,0.0,78,0.00,,,0.00,Wunderground v.1.15,2013-01-23 05:44:00,
2013-01-22 21:55:00,49.6,43.0,30.04,East,101,0.0,0.0,78,0.00,,,0.00,Wunderground v.1.15,2013-01-23 05:55:00,
2013-01-22 22:10:00,49.1,42.9,30.04,East,101,0.0,0.0,79,0.00,,,0.00,Wunderground v.1.15,2013-01-23 06:10:00,
2013-01-22 22:20:00,48.7,42.8,30.05,East,101,0.0,0.0,80,0.00,,,0.00,Wunderground v.1.15,2013-01-23 06:20:00,
2013-01-22 22:30:00,48.1,42.5,30.05,NNW,342,0.0,0.0,81,0.00,,,0.00,Wunderground v.1.15,2013-01-23 06:30:00,
2013-01-22 22:50:00,47.4,42.2,30.06,NNW,342,0.0,0.0,82,0.00,,,0.00,Wunderground v.1.15,2013-01-23 06:50:00,
2013-01-22 23:00:00,47.0,42.1,30.05,NNW,342,0.0,0.0,83,0.00,,,0.00,Wunderground v.1.15,2013-01-23 07:00:00,
2013-01-22 23:05:00,46.8,41.9,30.05,NNW,342,0.0,0.0,83,0.00,,,0.00,Wunderground v.1.15,2013-01-23 07:05:00,
2013-01-22 23:19:00,47.0,42.4,30.05,NNW,342,0.0,0.0,84,0.00,,,0.00,Wunderground v.1.15,2013-01-23 07:19:00,
2013-01-22 23:24:00,47.1,42.5,30.05,NNW,342,0.0,0.0,84,0.00,,,0.00,Wunderground v.1.15,2013-01-23 07:24:00,
2013-01-22 23:34:00,47.2,42.6,30.05,NNW,342,0.0,0.0,84,0.00,,,0.00,Wunderground v.1.15,2013-01-23 07:34:00,
2013-01-22 23:40:00,47.2,42.6,30.05,NNW,342,0.0,0.0,84,0.00,,,0.00,Wunderground v.1.15,2013-01-23 07:40:00,
2013-01-22 23:50:00,47.0,42.4,30.05,NNW,342,0.0,0.0,84,0.00,,,0.00,Wunderground v.1.15,2013-01-23 07:50:00,